Location: �perlecques
(50.8057°N, 2.1521°E)
Time: 16:19:11
(UTC+00:00)

YUBILEINY - Pass Details

Date: 06 April 2023
Orbit: 1478 x 1508 km, 82.5° (Epoch: 01 June)

Event Time Altitude Azimuth Distance (km) Brightness Sun altitude
Rises 00:49:22 0° 342° (NNW) 4,651 ? -31.7°
Reaches altitude 10° 00:53:54 10° 321° (NW) 3,670 ? -31.5°
Maximum altitude 00:58:13 15° 291° (WNW) 3,297 ? -31.2°
Enters shadow 01:01:03 13° 271° (W) 3,460 ? -31.1°
